Nantucket, MA

1:47 PM EDT on May 23, 2018 (GMT -0400)
Nantucket Memorial

Weather History for KACK - January, 2014

Change the Weather History Date:

Monday, January 13, 2014

  Actual Average Record
Temperature  
Mean Temperature 39 °F -  
Max Temperature 45 °F 35 °F 68 °F (1997)
Min Temperature 33 °F 20 °F 8 °F (1971)
Degree Days  
Heating Degree Days 26    
Moisture  
Dew Point 34 °F    
Average Humidity 80    
Maximum Humidity 89    
Minimum Humidity 65    
Precipitation  
Precipitation 0.00 in - - ()
Sea Level Pressure  
Sea Level Pressure 30.10 in    
Wind  
Wind Speed 8 mph (SW)    
Max Wind Speed 16 mph    
Max Gust Speed 24 mph    
Visibility 9 miles    
Events      
Averages and records for this station are not official NWS values.
T = Trace of Precipitation, MM = Missing Value Source: NWS Daily Summary

Daily Weather History Graph

Daily Weather History Graph

Search for Another Location

Airport or City:

Astronomy

Jan. 13, 2014 Rise Set
Actual Time 7:04 AM EST 4:33 PM EST
Civil Twilight 6:33 AM EST 5:04 PM EST
Nautical Twilight 5:59 AM EST 5:38 PM EST
Astronomical Twilight 5:26 AM EST 6:11 PM EST
Moon 2:46 PM EST (1/13) 4:50 AM EST (1/13)
Length of Visible Light 10h 30m
Length of Day
9h 29m
Waxing Gibbous, 95% of the Moon is Illuminated
Jan 13
Waxing Gibbous
Jan 15
Full
Jan 24
Last Quarter
Jan 30
New
Feb 6
First Quarter

Hourly Weather History & Observations

Time (EST) Temp. Windchill Dew Point Humidity Pressure Visibility Wind Dir Wind Speed Gust Speed Precip Events Conditions
12:53 AM 34.0 °F 28.8 °F 27.0 °F 75% 30.03 in 10.0 mi West 5.8 mph - N/A   Clear
1:53 AM 35.1 °F 29.3 °F 28.0 °F 76% 30.07 in 10.0 mi West 6.9 mph - N/A   Clear
2:53 AM 35.1 °F 30.1 °F 28.0 °F 76% 30.08 in 10.0 mi West 5.8 mph - N/A   Clear
3:53 AM 34.0 °F 26.6 °F 27.0 °F 75% 30.10 in 10.0 mi West 9.2 mph - N/A   Clear
4:53 AM 33.1 °F 27.7 °F 28.0 °F 82% 30.13 in 10.0 mi WNW 5.8 mph - N/A   Clear
5:53 AM 34.0 °F - 28.0 °F 79% 30.13 in 10.0 mi Calm Calm - N/A   Clear
6:53 AM 33.1 °F 26.1 °F 28.9 °F 85% 30.14 in 5.0 mi West 8.1 mph - N/A   Clear
7:53 AM 35.1 °F 29.3 °F 32.0 °F 89% 30.17 in 7.0 mi West 6.9 mph - N/A   Clear
8:53 AM 39.9 °F 34.5 °F 34.0 °F 79% 30.16 in 8.0 mi WSW 8.1 mph - N/A   Clear
9:53 AM 42.1 °F 36.1 °F 33.1 °F 70% 30.19 in 10.0 mi SW 10.4 mph - N/A   Clear
10:53 AM 43.0 °F 37.7 °F 32.0 °F 65% 30.16 in 10.0 mi SSW 9.2 mph - N/A   Clear
11:53 AM 44.1 °F 38.6 °F 35.1 °F 71% 30.14 in 10.0 mi SW 10.4 mph - N/A   Clear
12:53 PM 45.0 °F 39.3 °F 36.0 °F 71% 30.12 in 10.0 mi SW 11.5 mph - N/A   Clear
1:53 PM 44.1 °F 39.5 °F 37.0 °F 76% 30.11 in 10.0 mi SSW 8.1 mph - N/A   Clear
2:53 PM 44.1 °F 37.7 °F 37.0 °F 76% 30.13 in 10.0 mi SSW 12.7 mph - N/A   Clear
3:53 PM 41.0 °F 35.8 °F 36.0 °F 82% 30.11 in 7.0 mi South 8.1 mph - N/A   Clear
4:53 PM 39.9 °F 33.9 °F 37.0 °F 89% 30.10 in 7.0 mi South 9.2 mph - N/A   Clear
5:53 PM 42.1 °F 35.2 °F 37.9 °F 85% 30.10 in 8.0 mi South 12.7 mph - N/A   Clear
6:53 PM 42.1 °F 34.9 °F 39.0 °F 89% 30.09 in 9.0 mi South 13.8 mph - N/A   Clear
7:53 PM 43.0 °F 35.7 °F 39.9 °F 89% 30.10 in 9.0 mi South 15.0 mph - N/A   Clear
8:53 PM 43.0 °F 36.0 °F 39.9 °F 89% 30.06 in 9.0 mi South 13.8 mph - N/A   Clear
9:53 PM 44.1 °F 36.8 °F 39.9 °F 85% 30.04 in 10.0 mi South 16.1 mph - N/A   Clear
10:53 PM 44.1 °F 37.1 °F 41.0 °F 89% 30.02 in 9.0 mi South 15.0 mph 24.2 mph N/A   Mostly Cloudy
11:53 PM 44.1 °F 37.1 °F 41.0 °F 89% 30.00 in 8.0 mi South 15.0 mph - N/A   Mostly Cloudy